^^
Grace C. Lehan Memorial Weather Station Historical Data
Daily Summary for March 3, 2021 Units:  English    Metric   Both
Daily Weekly Monthly Yearly
  High: Low: Average:
Temperature: 59.5 °F 57.7 °F 58.1 °F
Dew Point: 58.7 °F 56.9 °F 57.3 °F
Humidity: 98% 97% 97%
Wind Speed: 2.1mph 0mph 0.3mph
Wind Gust: 10mph - -
Wind- - SSW
Pressure: 29.82 in 29.77 in -
Precipitation: 0.40 in    
 
 
Tabular Data for March 3, 2021
Time Temperature Dew Point Pressure Wind Wind Speed Wind Gust Humidity Rainfall Rate (Hourly) solar
00:04 57.8 °F 57 °F 29.82 in North 1 mph 3 mph 97% 0.19 in 0 W/m2
00:09 57.8 °F 57 °F 29.82 in NNW 0.3 mph 3 mph 97% 0.21 in 0 W/m2
00:14 57.8 °F 57 °F 29.82 in NE 1.5 mph 6 mph 97% 0.29 in 0 W/m2
00:19 57.7 °F 56.9 °F 29.81 in ENE 2.1 mph 10 mph 97% 0.36 in 0 W/m2
00:24 57.7 °F 56.9 °F 29.81 in NNW 0.4 mph 10 mph 97% 0.38 in 0 W/m2
00:29 57.7 °F 56.9 °F 29.82 in NW 0.9 mph 10 mph 97% 0.38 in 0 W/m2
00:34 57.7 °F 56.9 °F 29.82 in NNW 0.6 mph 10 mph 97% 0.44 in 0 W/m2
00:39 57.7 °F 56.9 °F 29.82 in North 0.4 mph 5 mph 97% 0.46 in 0 W/m2
00:44 57.7 °F 56.9 °F 29.81 in ENE 0.7 mph 5 mph 97% 0.48 in 0 W/m2
00:49 57.7 °F 56.9 °F 29.81 in East 0.1 mph 5 mph 97% 0.50 in 0 W/m2
00:54 57.7 °F 56.9 °F 29.81 in ENE 0.4 mph 5 mph 97% 0.52 in 0 W/m2
00:59 57.7 °F 56.9 °F 29.81 in NE 0.2 mph 5 mph 97% 0.54 in 0 W/m2
01:04 57.7 °F 56.9 °F 29.81 in NE 0.1 mph 5 mph 97% 0.54 in 0 W/m2
01:09 57.7 °F 56.9 °F 29.82 in Calm   3 mph 97% 0.14 in 0 W/m2
01:14 57.7 °F 56.9 °F 29.82 in Calm   3 mph 97% 0.14 in 0 W/m2
01:19 57.8 °F 56.9 °F 29.82 in Calm   3 mph 97% 0.15 in 0 W/m2
01:24 57.8 °F 57 °F 29.81 in NE 0.2 mph 4 mph 97% 0.16 in 0 W/m2
01:29 57.8 °F 57 °F 29.81 in Calm   4 mph 97% 0.18 in 0 W/m2
01:34 57.8 °F 57 °F 29.81 in NNW 0.2 mph 4 mph 97% 0.19 in 0 W/m2
01:39 57.8 °F 57 °F 29.81 in ENE 0.5 mph 4 mph 97% 0.19 in 0 W/m2
01:44 57.8 °F 57 °F 29.80 in NE 0.8 mph 6 mph 97% 0.19 in 0 W/m2
01:49 57.8 °F 57 °F 29.80 in NE 0.3 mph 6 mph 97% 0.19 in 0 W/m2
01:54 57.8 °F 57 °F 29.80 in NNE 0.9 mph 6 mph 97% 0.19 in 0 W/m2
01:59 57.8 °F 57 °F 29.80 in Calm   6 mph 97% 0.19 in 0 W/m2
02:04 57.8 °F 57 °F 29.80 in Calm   6 mph 97% 0.19 in 0 W/m2
02:09 57.9 °F 57.1 °F 29.80 in North 0.2 mph 5 mph 97% 0.06 in 0 W/m2
02:14 57.9 °F 57.1 °F 29.80 in Calm   5 mph 97% 0.06 in 0 W/m2
02:19 58 °F 57.1 °F 29.80 in NNW 0.3 mph 6 mph 97% 0.07 in 0 W/m2
02:24 58 °F 57.2 °F 29.80 in NW 0.3 mph 6 mph 97% 0.07 in 0 W/m2
02:29 58 °F 57.2 °F 29.80 in NNW 0.1 mph 6 mph 97% 0.07 in 0 W/m2
02:34 58 °F 57.2 °F 29.80 in NNE 0.7 mph 6 mph 97% 0.07 in 0 W/m2
02:39 58 °F 57.2 °F 29.81 in NNW 0.1 mph 5 mph 97% 0.02 in 0 W/m2
02:44 58 °F 57.1 °F 29.80 in Calm   5 mph 97% 0.02 in 0 W/m2
02:49 58 °F 57.2 °F 29.80 in Calm   5 mph 97% 0.02 in 0 W/m2
02:54 58 °F 57.2 °F 29.80 in Calm   5 mph 97% 0.02 in 0 W/m2
02:59 58 °F 57.2 °F 29.80 in North 0.1 mph 5 mph 97% 0.02 in 0 W/m2
03:04 58 °F 57.1 °F 29.79 in North 0.4 mph 7 mph 97% 0.02 in 0 W/m2
03:09 57.9 °F 57.1 °F 29.78 in NE 1 mph 7 mph 97% 0.01 in 0 W/m2
03:14 57.9 °F 57.1 °F 29.79 in North 0.2 mph 7 mph 97% 0.01 in 0 W/m2
03:19 57.9 °F 57.1 °F 29.79 in Calm   7 mph 97% 0.01 in 0 W/m2
03:24 57.9 °F 57.1 °F 29.79 in Calm   7 mph 97% 0.01 in 0 W/m2
03:29 57.9 °F 57.1 °F 29.79 in Calm   7 mph 97% 0.01 in 0 W/m2
03:34 57.9 °F 57.1 °F 29.78 in Calm   7 mph 97% 0.01 in 0 W/m2
03:39 57.9 °F 57.1 °F 29.78 in NW 0.3 mph 7 mph 97% 0.00 in 0 W/m2
03:44 57.9 °F 57.1 °F 29.78 in NW 0.2 mph 7 mph 97% 0.00 in 0 W/m2
03:49 57.9 °F 57.1 °F 29.78 in Calm   7 mph 97% 0.00 in 0 W/m2
03:54 57.9 °F 57 °F 29.78 in NE 0.1 mph 7 mph 97% 0.00 in 0 W/m2
03:59 57.9 °F 57 °F 29.78 in Calm   7 mph 97% 0.00 in 0 W/m2
04:09 57.9 °F 57.1 °F 29.78 in NNE 0.2 mph 4 mph 97% 0.00 in 0 W/m2
04:14 57.9 °F 57.1 °F 29.77 in Calm   4 mph 97% 0.00 in 0 W/m2
04:19 57.9 °F 57.1 °F 29.77 in North 0.1 mph 4 mph 97% 0.00 in 0 W/m2
04:24 57.9 °F 57.1 °F 29.77 in Calm   4 mph 97% 0.00 in 0 W/m2
04:29 57.9 °F 57.1 °F 29.77 in Calm   4 mph 97% 0.00 in 0 W/m2
04:34 57.9 °F 57.1 °F 29.77 in Calm   4 mph 97% 0.00 in 0 W/m2
04:39 57.9 °F 57.1 °F 29.77 in Calm     97% 0.00 in 0 W/m2
04:44 58 °F 57.1 °F 29.77 in NNE 0.3 mph 3 mph 97% 0.00 in 0 W/m2
04:49 58 °F 57.1 °F 29.77 in North 1.2 mph 7 mph 97% 0.00 in 0 W/m2
04:54 57.9 °F 57.1 °F 29.77 in Calm   7 mph 97% 0.00 in 0 W/m2
04:59 57.9 °F 57.1 °F 29.77 in NNW 0.5 mph 7 mph 97% 0.00 in 0 W/m2
05:04 57.9 °F 57.1 °F 29.77 in NNW 0.1 mph 7 mph 97% 0.00 in 0 W/m2
05:09 57.9 °F 57.1 °F 29.77 in Calm   3 mph 97% 0.00 in 0 W/m2
05:14 58 °F 57.1 °F 29.77 in NNE 0.5 mph 4 mph 97% 0.00 in 0 W/m2
05:19 57.9 °F 57.1 °F 29.78 in NW 0.3 mph 6 mph 97% 0.00 in 0 W/m2
05:24 57.9 °F 57.1 °F 29.78 in NNW 0.9 mph 6 mph 97% 0.00 in 0 W/m2
05:29 57.9 °F 57.1 °F 29.78 in NNW 0.8 mph 7 mph 97% 0.00 in 0 W/m2
05:34 58 °F 57.1 °F 29.77 in NNW 0.5 mph 7 mph 97% 0.00 in 0 W/m2
05:39 57.9 °F 57.1 °F 29.78 in North 1.3 mph 6 mph 97% 0.00 in 0 W/m2
05:44 58 °F 57.1 °F 29.78 in North 0.3 mph 6 mph 97% 0.00 in 0 W/m2
05:49 57.9 °F 57.1 °F 29.78 in North 0.3 mph 6 mph 97% 0.00 in 0 W/m2
05:54 57.9 °F 57.1 °F 29.78 in North 0.2 mph 6 mph 97% 0.00 in 0 W/m2
05:59 57.9 °F 57.1 °F 29.77 in NNE 0.1 mph 6 mph 97% 0.00 in 5 W/m2
06:04 58 °F 57.2 °F 29.77 in NNW 0.4 mph 6 mph 97% 0.00 in 5 W/m2
06:09 58 °F 57.2 °F 29.78 in NW 1 mph 7 mph 97% 0.00 in 7 W/m2
06:14 58 °F 57.2 °F 29.78 in NNW 1 mph 7 mph 97% 0.00 in 7 W/m2
06:19 58 °F 57.2 °F 29.78 in North 0.3 mph 7 mph 97% 0.00 in 9 W/m2
06:24 58 °F 57.2 °F 29.79 in NE 0.1 mph 7 mph 97% 0.00 in 12 W/m2
06:29 58 °F 57.2 °F 29.78 in NNE 0.6 mph 7 mph 97% 0.00 in 16 W/m2
06:34 58 °F 57.2 °F 29.78 in Calm   7 mph 97% 0.00 in 18 W/m2
06:39 58 °F 57.2 °F 29.78 in Calm   2 mph 97% 0.00 in 23 W/m2
06:44 58.1 °F 57.3 °F 29.79 in Calm   2 mph 97% 0.00 in 26 W/m2
06:49 58.2 °F 57.3 °F 29.79 in NNE 0.5 mph 7 mph 97% 0.00 in 30 W/m2
06:54 58.2 °F 57.5 °F 29.79 in NNE 0.4 mph 7 mph 97.3% 0.00 in 35 W/m2
06:59 58.3 °F 57.8 °F 29.78 in Calm   7 mph 98% 0.00 in 35 W/m2
07:04 58.4 °F 57.8 °F 29.78 in North 0.5 mph 7 mph 97.8% 0.00 in 28 W/m2
07:09 58.5 °F 57.9 °F 29.79 in WNW 0.3 mph 7 mph 97.9% 0.00 in 39 W/m2
07:14 58.4 °F 57.6 °F 29.79 in NW 0.7 mph 7 mph 97% 0.00 in 32 W/m2
07:19 58.4 °F 57.6 °F 29.79 in Calm   7 mph 97% 0.00 in 32 W/m2
07:24 58.4 °F 57.6 °F 29.79 in NE 0.3 mph 7 mph 97% 0.00 in 44 W/m2
07:29 58.4 °F 57.6 °F 29.79 in Calm   7 mph 97% 0.00 in 56 W/m2
07:34 58.4 °F 57.6 °F 29.79 in NNW 0.1 mph 7 mph 97% 0.00 in 69 W/m2
07:39 58.5 °F 57.6 °F 29.80 in Calm   4 mph 97% 0.00 in 69 W/m2
07:44 58.6 °F 57.7 °F 29.79 in NNW 0.3 mph 5 mph 97% 0.00 in 72 W/m2
07:49 58.7 °F 57.8 °F 29.80 in Calm   5 mph 97% 0.00 in 58 W/m2
07:54 58.8 °F 58.1 °F 29.80 in North 0.1 mph 5 mph 97.4% 0.00 in 54 W/m2
07:59 59 °F 58.4 °F 29.80 in ENE 0.5 mph 10 mph 98% 0.00 in 53 W/m2
08:00 59 °F 58.4 °F 29.80 in Calm   10 mph 98% 0.00 in 53 W/m2
08:09 58.9 °F 58.3 °F 29.80 in NE 0.1 mph 2 mph 98% 0.00 in 69 W/m2
08:14 58.9 °F 58.4 °F 29.80 in Calm   2 mph 98% 0.00 in 86 W/m2
08:19 59.1 °F 58.5 °F 29.80 in North 0.4 mph 6 mph 98% 0.00 in 86 W/m2
08:24 59 °F 58.5 °F 29.80 in North 0.6 mph 6 mph 98% 0.00 in 76 W/m2
08:29 59.1 °F 58.5 °F 29.80 in NW 0.5 mph 9 mph 98% 0.00 in 88 W/m2
08:34 59.3 °F 58.5 °F 29.80 in NW 0.4 mph 9 mph 97.1% 0.00 in 91 W/m2
08:39 59.3 °F 58.5 °F 29.80 in North 0.9 mph 9 mph 97% 0.00 in 95 W/m2
08:44 59.3 °F 58.4 °F 29.80 in Calm   9 mph 97% 0.00 in 109 W/m2
08:49 59.3 °F 58.4 °F 29.80 in Calm   9 mph 97% 0.00 in 105 W/m2
08:54 59.2 °F 58.4 °F 29.81 in NE 0.1 mph 9 mph 97% 0.00 in 88 W/m2
08:59 59.3 °F 58.5 °F 29.81 in NNW 0.4 mph 9 mph 97% 0.00 in 91 W/m2
09:04 59.5 °F 58.7 °F 29.80 in NE 0.3 mph 9 mph 97.2% 0.00 in 118 W/m2
09:08 59.4 °F 58.6 °F 29.80 in ENE 0.2 mph 4 mph 97% 0.00 in 128 W/m2
Hartford County Weather
Compliments of Weather Underground - 4 mb